{"data":{"norad_id":58236,"intl_designator":"2023-171G","name":"STARLINK-30853","alt_names":[],"object_type":"PAYLOAD","status":"ACTIVE","operator":null,"country":"US","launch_date":"2023-11-08","launch_site_code":"AFETR","launch_vehicle":null,"mission":null,"orbit_class":"UNKNOWN","rcs_meters":null,"size_class":null,"mass_kg":null,"dimensions":null,"purposes":["comms"],"wikipedia_slug":null,"has_3d_model":false,"image_url":null,"decayed_at":null,"tle_current":{"epoch":"2026-09-20T16:31:26.068224Z","epoch_age_seconds":127391,"freshness":"FRESH","line1":"1 58236U 23171G   26263.68849616  .00001294  00000+0  56522-4 0  9994","line2":"2 58236  43.0022 264.2787 0001306 267.6645  92.4057 15.27584070159550","mean_motion":15.2758407,"eccentricity":0.0001306,"inclination_deg":43.0022,"raan_deg":264.2787,"arg_perigee_deg":267.6645,"mean_anomaly_deg":92.4057,"bstar":5.6522e-5,"rev_number":15955,"period_min":94.266497555189,"perigee_km":482.14083971002,"apogee_km":483.93297833506,"semimajor_km":6861.1739090225,"source":"CELESTRAK","updated_at":"2026-09-21T09:00:33.837143Z"}}}